Home   Weather   Phnom Penh   Past weeks

Flag for Cambodia Past Weather in Phnom Penh, Cambodia — Yesterday and Last 2 Weeks

Now
93 °F

Passing clouds.


Feels Like: 96 °F
Forecast: 74 / 95 °F
Wind: 8 mph from Northeast

Location: Phnom-Penh / Pochentong

Current Time: Feb 28, 2017 at 2:38:47 pm

Latest Report: Feb 28, 2017 at 2:00 pm


Visibility: N/A

Pressure: 29.77 "Hg

Humidity: 41%

Dew Point: 66 °F

Location of Phnom PenhLocation

Past Weather in Phnom Penh — Graph

°F

Phnom Penh Temperature Yesterday

Maximum temperature yesterday: 93 °F (at 2:30 pm)
Minimum temperature yesterday: 77 °F (at 2:00 am)
Average temperature yesterday: 86 °F

High & Low Weather Summary for the Past Weeks

 TemperatureHumidityPressure
High95 °F (Feb 20, 1:30 pm)94% (Feb 20, 6:00 am)30.09 "Hg (Feb 20, 6:00 am)
Low72 °F (Feb 14, 6:00 am)31% (Feb 16, 2:00 pm)29.71 "Hg (Feb 20, 3:30 pm)
Average84 °F61%29.87 "Hg
* Reported Feb 13 1:00 pm — Feb 28 1:00 pm, Phnom Penh, Weather by CustomWeather, © 2017

Note: Actual official high and low records may vary slightly from our data, if they occured in-between our weather recording intervals... More about our weather records

Advertising

Phnom Penh Weather History for the Previous 24 Hours

Scroll right to see more
 ConditionsComfort  
Time TempWeatherWind HumidityBarometerVisibility
1:00 pm
Tue, Feb 28
91 °FSunny.6 mph46%29.80 "Hg10 mi
12:30 pm91 °FSunny.5 mph46%29.83 "Hg10 mi
12:00 pm90 °FSunny.6 mph46%29.83 "Hg10 mi
11:30 am88 °FPassing clouds.6 mph49%29.86 "HgN/A
11:00 am86 °FPassing clouds.7 mph52%29.89 "HgN/A
10:30 am86 °FPassing clouds.8 mph52%29.89 "HgN/A
10:00 am86 °FPassing clouds.9 mph52%29.89 "HgN/A
9:30 am82 °FPassing clouds.10 mph58%29.89 "HgN/A
9:00 am82 °FSunny.10 mph58%29.89 "Hg10 mi
8:30 am82 °FSunny.12 mph58%29.89 "Hg10 mi
8:00 am81 °FSunny.9 mph62%29.89 "Hg10 mi
7:30 am79 °FSunny.9 mph65%29.89 "Hg10 mi
7:00 am77 °FClear.8 mph69%29.86 "Hg6 mi
6:30 am77 °FPassing clouds.8 mph69%29.86 "Hg6 mi
6:00 am77 °FPassing clouds.8 mph69%29.86 "Hg6 mi
2:30 am81 °FPassing clouds.9 mph62%29.83 "Hg6 mi
2:00 am81 °FPassing clouds.9 mph62%29.83 "Hg6 mi
1:30 am81 °FPassing clouds.9 mph62%29.86 "Hg6 mi
1:00 am81 °FPassing clouds.13 mph62%29.86 "Hg6 mi
11:30 pm
Mon, Feb 27
84 °FPassing clouds.9 mph55%29.86 "Hg6 mi
11:00 pm84 °FPassing clouds.13 mph55%29.86 "Hg6 mi
10:30 pm86 °FPassing clouds.13 mph52%29.86 "Hg6 mi
10:00 pm86 °FPassing clouds.13 mph55%29.86 "Hg6 mi
9:30 pm88 °FPassing clouds.14 mph52%29.86 "Hg6 mi
9:00 pm88 °FPassing clouds.7 mph52%29.83 "Hg6 mi
8:30 pm90 °FPassing clouds.3 mph49%29.80 "Hg6 mi
8:00 pm90 °FPassing clouds.2 mph49%29.80 "Hg6 mi
7:30 pm90 °FPassing clouds.3 mph49%29.80 "Hg6 mi
7:00 pm90 °FPassing clouds.2 mph46%29.77 "Hg6 mi
6:30 pm90 °FPassing clouds.5 mph49%29.77 "Hg6 mi
6:00 pm91 °FPassing clouds.5 mph44%29.77 "HgN/A
5:30 pm93 °FPassing clouds.8 mph41%29.77 "HgN/A
5:00 pm93 °FScattered clouds.6 mph41%29.77 "HgN/A
4:30 pm93 °FScattered clouds.7 mph41%29.77 "HgN/A
4:00 pm93 °FScattered clouds.5 mph41%29.77 "HgN/A
3:30 pm93 °FScattered clouds.9 mph41%29.77 "HgN/A
3:00 pm93 °FScattered clouds.8 mph44%29.77 "HgN/A
2:30 pm93 °FScattered clouds.8 mph44%29.80 "HgN/A
2:00 pm91 °FScattered clouds.6 mph46%29.80 "HgN/A
Weather by CustomWeather, © 2017

See weather overviewHow to use our weather pages